Regional Weather Roundup
Issued by NWS

Home | Current Version | Previous Version | Graphics & Text | Print | Product List | Glossary On
Versions: 1 2 3 4 5 6 7 8 9 10 11 12 13 14 15 16 17 18 19 20 21 22 23 24 25 26 27 28 29 30 31 32 33 34 35 36 37 38 39 40 41 42 43 44 45 46 47 48 49 50
861
ASUS43 KTOP 221308
RWRKS

WEATHER ROUNDUP FOR KANSAS
NATIONAL WEATHER SERVICE GOODLAND KS
800 AM CDT SAT JUL 22 2017

NOTE:  "FAIR" INDICATES FEW OR NO CLOUDS BELOW 12,000 FEET WITH NO
SIGNIFICANT WEATHER AND/OR OBSTRUCTIONS TO VISIBILITY.

KSZ001>006-013>018-027>032-041>047-221400-
NORTHWEST KANSAS

CITY           SKY/WX    TMP DP  RH WIND       PRES   REMARKS
GOODLAND       CLOUDY    69  59  70 NW13      30.06R
HAYS           MOSUNNY   74  60  61 W5        29.88S
HILL CITY      SUNNY     73  60  63 W8        29.91R
RUSSELL        SUNNY     76  58  53 SW10      29.86R
$$

KSZ061>065-074>080-084>089-221400-
SOUTHWEST KANSAS

CITY           SKY/WX    TMP DP  RH WIND       PRES   REMARKS
DODGE CITY     SUNNY     75  60  59 NW7       29.94S
ELKHART          N/A     69  48  47 NW8         N/A
GARDEN CITY    SUNNY     70  61  73 NW3       29.97R
LIBERAL        SUNNY     71  61  70 CALM      29.99R
PRATT          SUNNY     77  62  59 S8        29.91R
$$

KSZ066>073-081>083-090>101-221400-
SOUTHEAST KANSAS

CITY           SKY/WX    TMP DP  RH WIND       PRES   REMARKS
CHANUTE        SUNNY     82  71  69 MISG      29.90R
COFFEYVILLE    SUNNY     81  71  71 S10       29.91R
HUTCHINSON     SUNNY     82  66  58 S6        29.87R
MEDICINE LODGE   N/A     80  65  59 S3        29.89S
NEWTON         SUNNY     82  68  62 SW15      29.89S
PARSONS        SUNNY     81  71  71 MISG      29.91S
WICHITA INTL   MOSUNNY   81  69  67 S12       29.88S
WICHITA JABRA  SUNNY     82  69  64 SW12      29.89S
WICHITA MCCONL SUNNY     80  68  66 SW10      29.89S
WINFIELD       MOSUNNY   82  70  66 S8        29.91S
$$

KSZ007>012-019>026-033>040-048>060-102>105-221400-
NORTHEAST KANSAS

CITY           SKY/WX    TMP DP  RH WIND       PRES   REMARKS
CONCORDIA      SUNNY     80  64  58 SW6       29.83R
EMPORIA        SUNNY     83  69  62 S13G22    29.87R
LAWRENCE       SUNNY     84  72  67 S8G18     29.84R
MANHATTAN      SUNNY     83  68  60 SW9       29.82R
MARYSVILLE     SUNNY     81  64  57 S3        29.83S
OLATHE IND     MOSUNNY   82  71  69 SW15      29.86R
OLATHE EXE     MOSUNNY   82  72  71 SW10      29.86R
SALINA         SUNNY     86  65  49 SW8       29.84R
TOPEKA BILLARD SUNNY     83  73  72 SW8       29.83R
TOPEKA FORBES  SUNNY     83  73  72 S13       29.83S
$$




USA.gov is the U.S. government's official web portal to all federal, state and local government web resources and services.